Milwaukee, WI

8:17 AM CST on November 13, 2019 (GMT -0600)
Gen Mitchell International

Weather History for KMKE - September, 2019

Change the Weather History Date:

Sunday, September 1, 2019

  Actual Average Record
Temperature  
Mean Temperature 66 °F 68 °F  
Max Temperature 70 °F 76 °F 98 °F (1953)
Min Temperature 63 °F 61 °F 43 °F (1949)
Degree Days  
Heating Degree Days 0 1  
Month to date heating degree days 0 1  
Since 1 July heating degree days 2 27  
Cooling Degree Days 2 5  
Month to date cooling degree days 2 5  
Year to date cooling degree days 608 570  
Growing Degree Days 16 (Base 50)    
Moisture  
Dew Point 60 °F    
Average Humidity 81    
Maximum Humidity 93    
Minimum Humidity 73    
Precipitation  
Precipitation T in 0.11 in 0.99 in (1897)
Month to date precipitation T 0.11  
Year to date precipitation 28.41 24.29  
Snow  
Snow 0.00 in 0.00 in 0.00 in (2018)
Month to date snowfall 0.0 0.0  
Since 1 July snowfall 0.0 0.0  
Since 1 September snowfall 0.0 0.0  
Snow Depth 0.00 in    
Sea Level Pressure  
Sea Level Pressure 30.14 in    
Wind  
Wind Speed 5 mph ()    
Max Wind Speed 13 mph    
Max Gust Speed 18 mph    
Visibility 9.6 miles    
Events Rain    
T = Trace of Precipitation, MM = Missing Value Source: Averaged Metar Reports

Daily Weather History Graph

Daily Weather History Graph

Search for Another Location

Airport or City:

Astronomy

Sep. 01, 2019 Rise Set
Actual Time 6:15 AM CDT 7:26 PM CDT
Civil Twilight 5:46 AM CDT 7:55 PM CDT
Nautical Twilight 5:11 AM CDT 8:30 PM CDT
Astronomical Twilight 4:34 AM CDT 9:07 PM CDT
Moon 8:48 AM CDT (9/1) 9:09 PM CDT (9/1)
Length of Visible Light 14h 09m
Length of Day
13h 10m
Waxing Crescent, 8% of the Moon is Illuminated
Sep 1
Waxing Crescent
Sep 5
First Quarter
Sep 13
Full
Sep 21
Last Quarter
Sep 28
New

Hourly Weather History & Observations

Time (CDT) Temp. Dew Point Humidity Pressure Visibility Wind Dir Wind Speed Gust Speed Precip Events Conditions
12:52 AM 66.0 °F 57.9 °F 75% 30.23 in 10.0 mi South 3.5 mph - N/A   Overcast
1:52 AM 64.9 °F 59.0 °F 81% 30.22 in 10.0 mi Calm Calm - N/A   Mostly Cloudy
2:52 AM 66.0 °F 60.1 °F 81% 30.20 in 10.0 mi SE 4.6 mph - N/A   Overcast
3:52 AM 64.9 °F 60.1 °F 84% 30.18 in 10.0 mi SE 12.7 mph - N/A   Mostly Cloudy
4:52 AM 64.9 °F 60.1 °F 84% 30.18 in 10.0 mi SSE 9.2 mph - N/A   Overcast
5:05 AM 64.9 °F 60.1 °F 84% 30.18 in 10.0 mi South 10.4 mph - N/A   Overcast
5:52 AM 64.0 °F 57.9 °F 80% 30.17 in 10.0 mi South 9.2 mph - 0.00 in Rain Light Rain
6:33 AM 63.0 °F 57.9 °F 84% 30.18 in 10.0 mi South 3.5 mph - 0.00 in   Overcast
6:52 AM 63.0 °F 57.9 °F 84% 30.18 in 10.0 mi SSE 5.8 mph - 0.00 in   Overcast
7:52 AM 63.0 °F 59.0 °F 87% 30.18 in 4.0 mi SSE 8.1 mph - 0.00 in Rain Light Rain
8:11 AM 63.0 °F 60.1 °F 90% 30.18 in 7.0 mi SSE 5.8 mph - 0.00 in Rain Light Rain
8:52 AM 64.0 °F 60.1 °F 87% 30.17 in 10.0 mi SSE 10.4 mph - 0.00 in   Overcast
9:52 AM 64.0 °F 60.1 °F 87% 30.17 in 10.0 mi SSE 9.2 mph - N/A   Overcast
10:23 AM 64.9 °F 61.0 °F 87% 30.17 in 10.0 mi ESE 8.1 mph - N/A   Overcast
10:52 AM 64.9 °F 60.1 °F 84% 30.17 in 10.0 mi ESE 4.6 mph - N/A   Overcast
11:52 AM 66.0 °F 60.1 °F 81% 30.16 in 8.0 mi ESE 3.5 mph - 0.00 in   Light Drizzle
12:20 PM 68.0 °F 61.0 °F 78% 30.15 in 10.0 mi East 3.5 mph - 0.00 in   Overcast
12:52 PM 69.1 °F 60.1 °F 73% 30.13 in 10.0 mi Calm Calm - 0.00 in   Mostly Cloudy
1:52 PM 69.1 °F 60.1 °F 73% 30.12 in 10.0 mi ENE 6.9 mph - N/A   Mostly Cloudy
2:52 PM 69.1 °F 60.1 °F 73% 30.10 in 10.0 mi East 4.6 mph - N/A   Overcast
3:52 PM 69.1 °F 60.1 °F 73% 30.09 in 10.0 mi East 4.6 mph - N/A   Mostly Cloudy
4:52 PM 68.0 °F 60.1 °F 76% 30.07 in 10.0 mi East 5.8 mph - N/A   Mostly Cloudy
5:45 PM 68.0 °F 60.1 °F 76% 30.07 in 10.0 mi ESE 4.6 mph - N/A   Scattered Clouds
5:52 PM 69.1 °F 60.1 °F 73% 30.07 in 10.0 mi SE 5.8 mph - N/A   Partly Cloudy
6:52 PM 66.9 °F 60.1 °F 79% 30.06 in 10.0 mi ESE 6.9 mph - N/A   Partly Cloudy
7:52 PM 64.9 °F 60.1 °F 84% 30.06 in 10.0 mi SSW 3.5 mph - N/A   Partly Cloudy
8:52 PM 64.0 °F 59.0 °F 84% 30.06 in 10.0 mi South 3.5 mph - N/A   Clear
9:52 PM 64.0 °F 59.0 °F 84% 30.07 in 10.0 mi SSW 3.5 mph - N/A   Clear
10:52 PM 63.0 °F 59.0 °F 87% 30.06 in 10.0 mi South 5.8 mph - N/A   Clear
11:52 PM 63.0 °F 60.1 °F 90% 30.06 in 10.0 mi South 3.5 mph - N/A   Clear